Weather History for Houghton Lake, MI

Change the Weather History Date:

Saturday, January 5, 2013

  Actual Average Record
Temperature  
Mean Temperature 22 °F 19 °F  
Max Temperature 32 °F 27 °F 47 °F (2007)
Min Temperature 12 °F 11 °F -17 °F (1924)
Degree Days  
Heating Degree Days 43 46  
Month to date heating degree days 218 229  
Since 1 July heating degree days 3027 3386  
Moisture  
Dew Point 22 °F    
Average Humidity 87    
Maximum Humidity 96    
Minimum Humidity 78    
Precipitation  
Precipitation 0.02 in 0.06 in 0.55 in (1929)
Month to date precipitation 0.04 0.27  
Year to date precipitation 0.04 0.27  
Snow  
Snow 0.30 in 0.50 in 8.40 in (1991)
Month to date snowfall 0.6 2.6  
Since 1 July snowfall 21.1 27.6  
Snow Depth 5.00 in    
Sea Level Pressure  
Sea Level Pressure 30.07 in    
Wind  
Wind Speed 6 mph (South)    
Max Wind Speed 16 mph    
Max Gust Speed 21 mph    
Visibility 6 miles    
Events Snow    
T = Trace of Precipitation, MM = Missing Value Source: NWS Daily Summary

Daily Weather History Graph

Daily Weather History Graph

Search for Another Location

Airport:

Trip Planner

Search our weather history database for the weather conditions in past years. The results will help you decide how hot, cold, wet, or windy it might be!

Date:

Astronomy

Jan. 05, 2013 Rise Set
Actual Time 8:14 AM EST 5:14 PM EST
Civil Twilight 7:41 AM EST 5:47 PM EST
Nautical Twilight 7:05 AM EST 6:23 PM EST
Astronomical Twilight 6:30 AM EST 6:58 PM EST
Moon 1:12 AM EST (1/5) 12:10 PM EST (1/5)
Length of Visible Light 10h 05m
Length of Day
8h 59m
Last Quarter, 44% of the Moon is Illuminated
Jan 5
Last Quarter
Jan 11
New
Jan 18
First Quarter
Jan 26
Full
Feb 3
Last Quarter

Hourly Weather History & Observations

Time (EST) Temp. Windchill Dew Point Humidity Pressure Visibility Wind Dir Wind Speed Gust Speed Precip Events Conditions
12:20 AM 23.0 °F 17.0 °F 19.4 °F 86% 30.07 in 10.0 mi SW 4.6 mph - N/A   Mostly Cloudy
12:53 AM 23.0 °F 15.8 °F 21.0 °F 92% 30.13 in 9.0 mi WSW 5.8 mph - N/A   Overcast
1:53 AM 24.1 °F 16.0 °F 21.9 °F 91% 30.15 in 10.0 mi WSW 6.9 mph - N/A   Overcast
2:53 AM 24.1 °F 16.0 °F 21.9 °F 91% 30.19 in 9.0 mi SW 6.9 mph - N/A   Overcast
3:53 AM 24.1 °F 18.2 °F 21.9 °F 91% 30.21 in 9.0 mi SW 4.6 mph - N/A   Overcast
4:53 AM 24.1 °F - 21.9 °F 91% 30.21 in 8.0 mi Calm Calm - N/A   Overcast
5:39 AM 21.2 °F - 19.4 °F 93% 30.15 in 5.0 mi Calm Calm - N/A   Scattered Clouds
5:53 AM 19.0 °F - 17.1 °F 92% 30.20 in 4.0 mi Calm Calm - N/A   Clear
6:15 AM 17.6 °F - 15.8 °F 93% 30.14 in 1.2 mi Calm Calm - N/A   Clear
6:17 AM 17.6 °F - 15.8 °F 93% 30.14 in 0.8 mi Calm Calm - N/A   Mist
6:27 AM 17.6 °F - 15.8 °F 93% 30.15 in 1.2 mi Calm Calm - N/A   Partly Cloudy
6:38 AM 15.8 °F 10.2 °F 14.0 °F 93% 30.15 in 3.0 mi SSE 3.5 mph - N/A   Partly Cloudy
6:53 AM 16.0 °F - 12.9 °F 88% 30.22 in 6.0 mi Calm Calm - N/A   Clear
7:53 AM 12.0 °F - 10.0 °F 92% 30.21 in 7.0 mi Calm Calm - N/A   Clear
8:53 AM 12.0 °F 5.9 °F 10.9 °F 95% 30.22 in 9.0 mi East 3.5 mph - N/A   Clear
9:53 AM 16.0 °F 8.8 °F 12.9 °F 88% 30.23 in 7.0 mi East 4.6 mph - N/A   Clear
10:53 AM 25.0 °F 16.3 °F 21.9 °F 88% 30.22 in 10.0 mi South 8.1 mph - N/A   Clear
11:53 AM 28.0 °F 21.7 °F 24.1 °F 85% 30.17 in 10.0 mi SSE 5.8 mph - N/A   Partly Cloudy
12:07 PM 28.4 °F 20.4 °F 24.8 °F 86% 30.10 in 10.0 mi SE 8.1 mph - N/A   Mostly Cloudy
12:53 PM 28.0 °F 20.0 °F 24.1 °F 85% 30.12 in 10.0 mi SSE 8.1 mph - N/A   Overcast
1:53 PM 28.0 °F 17.0 °F 24.1 °F 85% 30.10 in 6.0 mi South 13.8 mph - N/A   Overcast
2:53 PM 28.9 °F 19.8 °F 24.1 °F 82% 30.06 in 6.0 mi SSW 10.4 mph - N/A   Haze
3:53 PM 30.0 °F 23.2 °F 25.0 °F 82% 30.05 in 7.0 mi SSW 6.9 mph - N/A   Overcast
4:53 PM 28.9 °F 21.9 °F 24.1 °F 82% 30.02 in 5.0 mi SSE 6.9 mph - N/A   Haze
5:30 PM 28.4 °F 22.2 °F 24.8 °F 86% 29.95 in 5.0 mi SSE 5.8 mph - N/A   Scattered Clouds
5:53 PM 28.0 °F 20.8 °F 25.0 °F 88% 30.01 in 6.0 mi South 6.9 mph - N/A   Partly Cloudy
6:53 PM 28.0 °F 20.8 °F 25.0 °F 88% 29.99 in 5.0 mi SSE 6.9 mph - N/A   Mostly Cloudy
7:53 PM 30.0 °F 22.4 °F 25.0 °F 82% 29.97 in 7.0 mi South 8.1 mph - N/A   Overcast
8:53 PM 30.9 °F 23.5 °F 25.0 °F 79% 29.96 in 10.0 mi SSW 8.1 mph - N/A   Overcast
9:53 PM 32.0 °F 23.0 °F 28.9 °F 88% 29.93 in 2.5 mi SSW 11.5 mph 18.4 mph 0.00 in Snow Light Snow
9:59 PM 32.0 °F 24.2 °F 28.4 °F 87% 29.88 in 3.0 mi SSW 9.2 mph - 0.00 in Snow Light Snow
10:16 PM 32.0 °F 24.2 °F 30.2 °F 93% 29.87 in 7.0 mi SSW 9.2 mph - 0.00 in   Overcast
10:41 PM 32.0 °F 23.0 °F 30.2 °F 93% 29.87 in 6.0 mi SSW 11.5 mph 18.4 mph 0.00 in Snow Light Snow
10:53 PM 32.0 °F 23.6 °F 30.0 °F 92% 29.91 in 4.0 mi SSW 10.4 mph - 0.00 in Snow Light Snow
11:06 PM 32.0 °F 23.6 °F 30.2 °F 93% 29.86 in 2.0 mi SSW 10.4 mph - 0.01 in Snow Light Snow
11:34 PM 32.0 °F 24.2 °F 30.2 °F 93% 29.86 in 3.0 mi SSW 9.2 mph - 0.01 in Snow Light Snow
11:53 PM 32.0 °F 23.6 °F 30.9 °F 96% 29.90 in 3.0 mi SSW 10.4 mph - 0.02 in Snow Light Snow
11:56 PM 32.0 °F 23.0 °F 30.2 °F 93% 29.85 in 2.5 mi SSW 11.5 mph - 0.00 in Snow Light Snow